Flag for Gambia Weather past 2 weeks in Banjul, Gambia

Now
88 °F

Scattered clouds.


Feels Like: 88 °F
Forecast: 68 / 86 °F
Wind: 6 mph from Southeast

Location: Banjul / Yundum


UV Index: 10 (Very high)

Visibility: 6 mi


Pressure: 29.86 "Hg

Humidity: 40%

Dew point: 61 °F

Location of BanjulLocation

Historic Weather in Banjul

°F

Banjul temperature yesterday

Maximum temperature yesterday: 99 °F (at 1:00 PM)
Minimum temperature yesterday: 72 °F (at 6:00 AM)
Average temperature yesterday: 82 °F

Past Weeks' High & Low Weather Summary

 TemperatureHumidityPressure
High100 °F (Apr 21, 3:00 PM)100% (Apr 12, 5:00 AM)29.92 "Hg (Apr 12, 5:00 AM)
Low63 °F (Apr 9, 5:00 AM)18% (Apr 17, 3:00 PM)29.68 "Hg (Apr 21, 4:00 PM)
Average76 °F69%29.82 "Hg
* Reported Apr 8 11:00 AM — Apr 23 11:00 AM, Banjul, Weather by CustomWeather, © 2014

Note: Actual official high and low records may vary slightly from our data, if they occured in-between our weather recording intervals... More about our weather records

Advertising

Historic Weather Conditions — Data for Previous 24 hours

 ConditionsComfort  
Time TempWeatherWind HumidityBarometerVisibility
11:00 AM
Apr 23
84 °FSunny.5 mph48%29.86 "Hg10 mi
10:00 AM79 °FSunny.7 mph54%29.86 "Hg10 mi
9:00 AM75 °FSunny.7 mph74%29.86 "Hg10 mi
8:00 AM70 °FSunny.6 mph88%29.83 "Hg10 mi
7:00 AM68 °FMild.5 mph88%29.83 "Hg6 mi
6:00 AM68 °FMild.5 mph88%29.83 "Hg6 mi
5:00 AM68 °FClear.5 mph88%29.83 "Hg10 mi
4:00 AM68 °FPassing clouds.5 mph88%29.83 "Hg6 mi
3:00 AM70 °FPassing clouds.7 mph83%29.83 "Hg6 mi
2:00 AM70 °FClear.8 mph83%29.86 "Hg10 mi
1:00 AM70 °FClear.5 mph83%29.86 "Hg10 mi
12:00 AM72 °FClear.7 mph78%29.83 "Hg10 mi
11:00 PM
Apr 22
72 °FClear.7 mph83%29.83 "Hg10 mi
10:00 PM72 °FClear.6 mph78%29.80 "Hg10 mi
9:00 PM73 °FClear.7 mph74%29.80 "Hg10 mi
8:00 PM75 °FClear.9 mph69%29.77 "Hg10 mi
7:00 PM81 °FSunny.10 mph62%29.71 "Hg10 mi
6:00 PM84 °FSunny.9 mph51%29.71 "Hg10 mi
5:00 PM90 °FSunny.9 mph43%29.71 "Hg10 mi
4:00 PM97 °FSunny.8 mph34%29.71 "Hg10 mi
3:00 PM97 °FSunny.8 mph32%29.77 "Hg10 mi
2:00 PM97 °FSunny.10 mph32%29.77 "Hg10 mi
1:00 PM99 °FSunny.7 mph27%29.77 "Hg10 mi
12:00 PM95 °FSunny.10 mph28%29.80 "Hg10 mi
Weather by CustomWeather, © 2014

See weather overview